Location: Bremen
(53.0833°N, 8.8000°E)
Time: 00:47:54
(UTC+02:00)

X-37B - Pass Details

Date: 01 July 2022
Orbit: 328 x 343 km, 45.0° (Epoch: 12 August)

Event Time Altitude Azimuth Distance (km) Brightness Sun altitude
Rises 00:09:48 0° 248° (WSW) 2,096 4.3 -11.9°
Reaches altitude 10° 00:12:15 10° 225° (SW) 1,263 2.9 -12.0°
Enters shadow 00:12:59 13° 212° (SSW) 1,091 2.5 -12.0°
